Regional Weather Roundup
Issued by NWS Burlington, VT

Home | Current Version | Previous Version | Graphics & Text | Print | Product List | Glossary On
Versions: 1 2 3 4 5 6 7 8 9 10 11 12 13 14 15 16 17 18 19 20 21 22 23 24 25 26 27 28 29 30 31 32 33 34 35 36 37 38 39 40 41 42 43 44 45 46 47 48 49 50
000
ASUS41 KBTV 300030
RWRBTV
VERMONT REGIONAL WEATHER ROUNDUP
NATIONAL WEATHER SERVICE BURLINGTON VT
800 PM EDT MON JUN 29 2015

NOTE: "FAIR" INDICATES FEW OR NO CLOUDS BELOW 12,000 FEET WITH NO
SIGNIFICANT WEATHER AND/OR OBSTRUCTIONS TO VISIBILITY.

* THESE REPORTS ARE NOT UNDER NWS QUALITY CONTROL AND/OR DO NOT
  REPORT WEATHER SUCH AS PRECIPITATION AND FOG.

VTZ001>019-300100-
_____VERMONT_____


CITY           SKY/WX    TMP DP  RH WIND       PRES   REMARKS
BURLINGTON     LGT RAIN  64  56  75 NW6       29.88R
6HR MIN TEMP:  64; 6HR MAX TEMP:  70; 6HR PCP: TRACE;

MONTPELIER     CLOUDY    61  55  81 CALM      29.93R
6HR MIN TEMP:  61; 6HR MAX TEMP:  65;

MORRISVILLE    CLOUDY    66  56  70 CALM      29.89R
6HR MIN TEMP:  65; 6HR MAX TEMP:  69; 6HR PCP: TRACE;

ST. JOHNSBURY*   N/A     66  52  60 MISG      29.86R
6HR MIN TEMP:  66; 6HR MAX TEMP:  70;

LYNDONVILLE*   CLOUDY    62  54  75 CALM      29.90S
6HR MIN TEMP:  63; 6HR MAX TEMP:  66;

MIDDLEBURY*    CLOUDY    62  62 100 CALM      29.89S
6HR MIN TEMP:  61; 6HR MAX TEMP:  69; 6HR PCP:  0.01;

RUTLAND*       CLOUDY    63  57  82 CALM      29.90R
6HR MIN TEMP:  63; 6HR MAX TEMP:  68;

SPRINGFIELD    CLOUDY    66  60  81 S3        29.88R
6HR MIN TEMP:  64; 6HR MAX TEMP:  69; 6HR PCP:  0.01;

HIGHGATE*      CLOUDY    61  57  88 CALM      29.87R
6HR MIN TEMP:  61; 6HR MAX TEMP:  67;

NEWPORT*       CLOUDY    60  54  79 CALM      29.89R
6HR MIN TEMP:  59; 6HR MAX TEMP:  64;

BENNINGTON     CLOUDY    65  56  72 SW5       29.91R
6HR MIN TEMP:  65; 6HR MAX TEMP:  71;

MT. MANSFIELD*   N/A     48 N/A N/A NW14        N/A

_____LAKE CHAMPLAIN_____


CITY           SKY/WX    TMP DP  RH WIND       PRES   REMARKS
BURTON ISLAND*   N/A     63  57  82 SE2         N/A
COLCHESTER RF*   N/A     63  57  82 SW5         N/A
DIAMOND ISL*     N/A     64  61  88 S5          N/A

$$

NYZ007-026>031-035-052-083-300100-
_____NORTHERN NEW YORK_____


CITY           SKY/WX    TMP DP  RH WIND       PRES   REMARKS
PLATTSBURGH    CLOUDY    63  58  83 CALM      29.87R
6HR MIN TEMP:  61; 6HR MAX TEMP:  66; 6HR PCP: TRACE;

SARANAC LAKE   MOCLDY    57  56  96 SW3       29.89S
6HR MIN TEMP:  57; 6HR MAX TEMP:  63; 6HR PCP:  0.05;

MASSENA        CLEAR     65  57  75 SW6       29.87R
6HR MIN TEMP:  62; 6HR MAX TEMP:  69; 6HR PCP: TRACE;

OGDENSBURG*    CLEAR     64  59  82 SW7       29.88R
POTSDAM*       CLEAR     63  59  88 SW5       29.88R
WATERTOWN      CLEAR     63  55  75 SW7       29.90R
6HR MIN TEMP:  63; 6HR MAX TEMP:  67;

FT DRUM        CLEAR     63  56  77 W6        29.89R
6HR MIN TEMP:  61; 6HR MAX TEMP:  67; 6HR PCP: TRACE;

ALBANY         MOCLDY    68  57  68 W5        29.91R
6HR MIN TEMP:  68; 6HR MAX TEMP:  73;

GLENS FALLS    CLOUDY    68  55  63 SW7       29.88R
6HR MIN TEMP:  68; 6HR MAX TEMP:  73; 6HR PCP: TRACE;


$$
NHZ002-005-011-300100-
_____NEW HAMPSHIRE_____


CITY           SKY/WX    TMP DP  RH WIND       PRES   REMARKS
LEBANON        CLOUDY    65  59  81 CALM      29.88R
6HR MIN TEMP:  65; 6HR MAX TEMP:  72; 6HR PCP: TRACE;

KEENE          PTCLDY    66  55  68 S5        29.89S
6HR MIN TEMP:  70; 6HR MAX TEMP:  73;

MT WASHINGTON  DRZL/FOG  43  43 100 W24         N/A  VSB 1/16
6HR MIN TEMP:  41; 6HR MAX TEMP:  45; 6HR PCP:  0.07;

PLYMOUTH       LGT RAIN  62  62 100 CALM      29.88S
6HR MIN TEMP:  63; 6HR MAX TEMP:  69; 6HR PCP:  0.03;

WHITEFIELD     LGT RAIN  63  55  75 CALM      29.89R
6HR MIN TEMP:  63; 6HR MAX TEMP:  69; 6HR PCP: TRACE;


$$

_____REGIONAL QUEBEC LOCATIONS_____


CITY           SKY/WX    TMP DP  RH WIND       PRES   REMARKS
MONTREAL       MOCLDY    66  57  72 SW7       29.85R
QUEBEC CITY    MOCLDY    61  55  82 W7        29.82R
SHERBROOKE     MOCLDY    61  55  82 W6        29.86R

_____REGIONAL ONTARIO LOCATIONS_____


CITY           SKY/WX    TMP DP  RH WIND       PRES   REMARKS
OTTAWA         PTCLDY    68  55  64 SW6       29.85R

______KEY______
VSB  - VISIBILITY IN MILES
WCI  - WIND CHILL INDEX
HX   - HEAT INDEX
$$



USA.gov is the U.S. government's official web portal to all federal, state and local government web resources and services.